Location: Newark
(49.9819°N, 3.0344°E)
Time: 17:53:49
(UTC+00:00)

Envisat - Visible Passes

Search period start: 24 January 2020 00:00
Search period end: 03 February 2020 00:00
Orbit: 764 x 766 km, 98.1° (Epoch: 23 January)

Date Brightness Start Highest point End Pass type
(mag) Time Alt. Az. Time Alt. Az. Time Alt. Az.
24 Jan 6.1 05:11:15 10° NE 05:14:11 15° E 05:17:06 10° ESE visible
24 Jan 3.0 06:48:47 10° NNE 06:53:54 85° WNW 06:58:59 10° SSW visible
24 Jan 4.3 18:08:15 10° SSW 18:13:03 42° W 18:17:53 10° NNW visible
25 Jan 4.1 06:12:06 10° NNE 06:17:03 48° E 06:21:57 10° S visible
25 Jan 3.1 17:31:04 10° SSE 17:36:09 84° WSW 17:41:17 10° NNW visible
25 Jan 6.2 19:13:39 10° WSW 19:15:58 13° W 19:18:18 10° WNW visible
26 Jan 5.4 05:35:50 10° NE 05:39:59 25° E 05:44:07 10° SSE visible
26 Jan 5.3 18:34:30 10° SSW 18:38:44 26° W 18:42:59 10° NW visible
27 Jan 6.3 05:00:43 10° ENE 05:02:43 12° E 05:04:43 10° ESE visible
27 Jan 3.2 06:37:29 10° NNE 06:42:36 79° ESE 06:47:41 10° S visible
27 Jan 3.9 17:56:45 10° S 18:01:41 52° W 18:06:40 10° NNW visible
28 Jan 4.5 06:00:54 10° NNE 06:05:41 39° E 06:10:27 10° SSE visible
28 Jan 3.0 17:19:47 10° SSE 17:24:51 80° ENE 17:29:58 10° NNW visible
28 Jan 6.0 19:01:24 10° SW 19:04:31 16° W 19:07:39 10° NW visible
29 Jan 5.8 05:24:51 10° NE 05:28:35 20° E 05:32:17 10° SE visible
29 Jan 4.9 18:22:49 10° SSW 18:27:20 32° W 18:31:53 10° NNW visible
30 Jan 3.5 06:26:13 10° NNE 06:31:17 65° ESE 06:36:20 10° S visible
30 Jan 3.5 17:45:20 10° S 17:50:22 64° WSW 17:55:26 10° NNW visible
31 Jan 5.0 05:49:45 10° NNE 05:54:19 32° E 05:58:51 10° SSE visible
31 Jan 3.0 17:08:33 10° SSE 17:13:35 66° ENE 17:18:38 10° N visible
31 Jan 5.7 18:49:24 10° SW 18:53:05 20° W 18:56:47 10° NW visible
01 Feb 6.1 05:13:57 10° NE 05:17:09 16° E 05:20:19 10° SE visible
01 Feb 4.5 18:11:14 10° SSW 18:15:58 39° W 18:20:44 10° NNW visible
02 Feb 4.0 06:14:58 10° NNE 06:19:58 53° E 06:24:55 10° S visible
02 Feb 3.2 17:33:58 10° S 17:39:02 78° WSW 17:44:10 10° NNW visible
02 Feb 6.3 19:17:03 10° WSW 19:18:56 12° W 19:20:50 10° WNW visible
